星链-37476(STARLINK-37476)

导读

STARLINK-37476(NORAD编号68853)是SpaceX星链星座中的一颗卫星,隶属于Starlink项目,是SpaceX打造全球卫星互联网星座的组成部分。它由猎鹰9号运载火箭发射,被送入近地轨道,旨在为全球提供高速、低延迟的宽带互联网服务,尤其覆盖偏远地区。NORAD编号是北美防空司令部为其分配的空间物体唯一识别码,用于轨道追踪和空间碰撞预警,保障太空运行安全,目前该卫星在轨正常运行,支撑星链星座的服务能力。

Basic Information
目录编号:
68853
目录名称:
STARLINK-37476
国际标识:
2026-094Q
轨道中心:
EARTH
卫星名称:
星链-37476
卫星全名:
星链-37476(STARLINK-37476)
卫星状态:
在轨 (已飞行131 天)
发射日期:
2026-04-26 UTC
国别 :
美国 (US)
星等 :
--
Orbit Information
数据来源 国际轨道数据 AOE轨道数据
星历时间 2026-09-04T14:53:14+0800
15小时前
查看轨道信息
2026-09-02T02:00:00+0800
3天前
查看轨道信息
半长轴 6843.681km 6843.543km
偏心率 0.000143 0.0001557
轨道倾角 97.284° 97.285°
近地点辐角 99.774° 86.269°
升交点赤经 260.655° 258.152°
平近点角 260.367° 318.016°
近地点 464.565km 464.34km
远地点 466.523km 466.472km
周期 93.906分钟 93.903分钟
每日圈数 15.334448 15.334913
Detailed Information
固有亮度:
5
最大亮度:
2.5
卫星平台:
Starlink V1.0
覆盖范围:
全球
运营商:
太空探索技术公司
运营商所在国:
美国
制造商(研发单位):
太空探索技术公司
制造商所在国:
美国
使用方式:
暂无
Satellite Introduction
Starlink 计划是 SpaceX 推出的全球卫星互联网项目,通过发射低轨道卫星,为全球尤其是偏远地区提供高速、低延迟的互联网服务。自 2019 年起,Starlink 已部署数千颗卫星,旨在缩小全球数字鸿沟,推动互联网普及。该项目还为军事、航空等行业提供通信支持,带来广泛经济效益。
2D Orbit Map
3D Orbit Map
Orbit Altitude Analysis Chart
Orbit Inclination Analysis Chart
Orbit Comprehensive Analysis Chart
View Comprehensive Chart
Conjunction Data List
Event ID Objects TCA Miss Dist (km) Collision Risk Probability Collision Risk Index (CRI) Action
CDM_260906-083806-787906-885321
2026-09-06T
08:38:14+0000
0.369 km
远距离
3.035763E-4 高风险 0.85
CDM_260906-105906-787906-885321
2026-09-06T
10:59:11+0000
0.724 km
远距离
5.882414E-5 中风险 0.7
CDM_260906-123306-787906-885321
2026-09-06T
12:33:09+0000
1.729 km
极远距离
3.291313E-6 低风险 0.45
CDM_260906-070406-787906-885321
2026-09-06T
07:04:17+0000
2.166 km
极远距离
1.834024E-6 低风险 0.4
CDM_260905-035006-885306-995122
2026-09-05T
03:50:38+0000
2.601 km
极远距离
1.597547E-6 低风险 0.39
CDM_260906-101206-787906-885321
2026-09-06T
10:12:12+0000
2.432 km
极远距离
1.449568E-6 低风险 0.38
CDM_260905-152204-177206-885321
2026-09-05T
15:22:45+0000
2.005 km
极远距离
1.106769E-6 低风险 0.36
CDM_260906-092506-787906-885321
2026-09-06T
09:25:13+0000
3.000 km
极远距离
1.064579E-6 低风险 0.36